Location: �terpigny
(49.8910°N, 2.9249°E)
Time: 04:56:36
(UTC+00:00)

Cosmos 332 Rocket - Pass Details

Date: 03 June 2022
Orbit: 681 x 703 km, 74.0° (Epoch: 05 July)

Event Time Altitude Azimuth Distance (km) Brightness Sun altitude
Exits shadow 23:52:07 27° 218° (SW) 1,293 4.7 -17.7°
Maximum altitude 23:54:39 70° 296° (WNW) 730 3.9 -17.7°
Drops below altitude 10° 23:59:27 10° 20° (NNE) 2,137 7.5 -17.6°
Sets 00:01:47 0° 23° (NNE) 3,059 8.5 -17.6°
